owner,sensor,date,latitude,longitude,vertical_datum,mass_concentration_of_oxygen_in_sea_water,qcFlag 
DISL,ioos:station:DISL:BSCA:1,2018-03-02T10:00:00Z,30.3288,-87.8293,1.843,7.86,1111122 
DISL,ioos:station:DISL:BSCA:1,2018-03-02T12:30:00Z,30.3288,-87.8293,1.686,7.46,1111122 
DISL,ioos:station:DISL:BSCA:1,2018-03-02T13:30:00Z,30.3288,-87.8293,1.662,7.95,1111122 
DISL,ioos:station:DISL:BSCA:1,2018-03-02T14:30:00Z,30.3288,-87.8293,1.637,7.82,1111122 
DISL,ioos:station:DISL:BSCA:1,2018-03-02T15:30:00Z,30.3288,-87.8293,1.642,7.66,1111122 
DISL,ioos:station:DISL:BSCA:1,2018-03-02T16:00:00Z,30.3288,-87.8293,1.648,7.72,1111122 
DISL,ioos:station:DISL:BSCA:1,2018-03-02T17:00:00Z,30.3288,-87.8293,1.64,7.77,1111122 
DISL,ioos:station:DISL:BSCA:1,2018-03-02T18:00:00Z,30.3288,-87.8293,1.681,7.8,1111122 
DISL,ioos:station:DISL:BSCA:1,2018-03-02T19:30:00Z,30.3288,-87.8293,1.789,8.24,1111122 
DISL,ioos:station:DISL:BSCA:1,2018-03-02T20:00:00Z,30.3288,-87.8293,1.801,8.38,1111122 
DISL,ioos:station:DISL:BSCA:1,2018-03-02T21:00:00Z,30.3288,-87.8293,1.804,8.99,1111122 
DISL,ioos:station:DISL:BSCA:1,2018-03-02T22:00:00Z,30.3288,-87.8293,1.793,9.16,1111122 
DISL,ioos:station:DISL:BSCA:1,2018-03-02T23:00:00Z,30.3288,-87.8293,1.805,9.07,1111122 
DISL,ioos:station:DISL:BSCA:1,2018-03-03T00:00:00Z,30.3288,-87.8293,1.828,8.78,1111122 
DISL,ioos:station:DISL:BSCA:1,2018-03-03T01:00:00Z,30.3288,-87.8293,1.852,9.02,1111122 
DISL,ioos:station:DISL:BSCA:1,2018-03-03T02:30:00Z,30.3288,-87.8293,1.875,8.69,1111122 
DISL,ioos:station:DISL:BSCA:1,2018-03-03T03:00:00Z,30.3288,-87.8293,1.89,8.13,1111122 
DISL,ioos:station:DISL:BSCA:1,2018-03-03T04:00:00Z,30.3288,-87.8293,1.929,8.43,1111122 
DISL,ioos:station:DISL:BSCA:1,2018-03-03T05:30:00Z,30.3288,-87.8293,1.937,8.27,1111122 
DISL,ioos:station:DISL:BSCA:1,2018-03-03T06:00:00Z,30.3288,-87.8293,1.929,8.46,1111122 
DISL,ioos:station:DISL:BSCA:1,2018-03-03T07:00:00Z,30.3288,-87.8293,1.911,8.56,1111122 
DISL,ioos:station:DISL:BSCA:1,2018-03-03T08:30:00Z,30.3288,-87.8293,1.883,7.54,1111122 
DISL,ioos:station:DISL:BSCA:1,2018-03-03T09:30:00Z,30.3288,-87.8293,1.846,8.22,1111122 
DISL,ioos:station:DISL:BSCA:1,2018-03-03T10:30:00Z,30.3288,-87.8293,1.782,8.22,1111122 
DISL,ioos:station:DISL:BSCA:1,2018-03-03T11:30:00Z,30.3288,-87.8293,1.729,7.05,1111122 
DISL,ioos:station:DISL:BSCA:1,2018-03-03T12:30:00Z,30.3288,-87.8293,1.716,7.25,1111122 
DISL,ioos:station:DISL:BSCA:1,2018-03-03T13:30:00Z,30.3288,-87.8293,1.696,7.01,1111122 
DISL,ioos:station:DISL:BSCA:1,2018-03-03T14:30:00Z,30.3288,-87.8293,1.692,5.63,1111122 
DISL,ioos:station:DISL:BSCA:1,2018-03-03T15:30:00Z,30.3288,-87.8293,1.716,5.11,1111122 
DISL,ioos:station:DISL:BSCA:1,2018-03-03T16:00:00Z,30.3288,-87.8293,1.731,5.34,1111122 
DISL,ioos:station:DISL:BSCA:1,2018-03-04T05:00:00Z,30.3288,-87.8293,1.849,8.51,1111122 
DISL,ioos:station:DISL:BSCA:1,2018-03-04T05:30:00Z,30.3288,-87.8293,1.85,8.15,1111122 
DISL,ioos:station:DISL:BSCA:1,2018-03-04T06:30:00Z,30.3288,-87.8293,1.854,7.51,1111122 
DISL,ioos:station:DISL:BSCA:1,2018-03-04T07:30:00Z,30.3288,-87.8293,1.87,6.83,1111122 
DISL,ioos:station:DISL:BSCA:1,2018-03-04T08:30:00Z,30.3288,-87.8293,1.855,7.16,1111122 
DISL,ioos:station:DISL:BSCA:1,2018-03-04T09:30:00Z,30.3288,-87.8293,1.822,6.16,1111122 
DISL,ioos:station:DISL:BSCA:1,2018-03-04T10:30:00Z,30.3288,-87.8293,1.765,8.19,1111122 
DISL,ioos:station:DISL:BSCA:1,2018-03-04T11:30:00Z,30.3288,-87.8293,1.734,6.93,1111122 
DISL,ioos:station:DISL:BSCA:1,2018-03-04T12:30:00Z,30.3288,-87.8293,1.731,7.25,1111122 
DISL,ioos:station:DISL:BSCA:1,2018-03-04T13:30:00Z,30.3288,-87.8293,1.765,7.96,1111122 
DISL,ioos:station:DISL:BSCA:1,2018-03-04T14:30:00Z,30.3288,-87.8293,1.781,7.83,1111122 
DISL,ioos:station:DISL:BSCA:1,2018-03-04T15:30:00Z,30.3288,-87.8293,1.798,7.87,1111122 
DISL,ioos:station:DISL:BSCA:1,2018-03-05T00:30:00Z,30.3288,-87.8293,1.885,9.92,1111122 
DISL,ioos:station:DISL:BSCA:1,2018-03-05T01:30:00Z,30.3288,-87.8293,1.894,11.5,1111122 
DISL,ioos:station:DISL:BSCA:1,2018-03-05T02:30:00Z,30.3288,-87.8293,1.884,11.34,1111122 
DISL,ioos:station:DISL:BSCA:1,2018-03-05T03:30:00Z,30.3288,-87.8293,1.877,10.74,1111122 
DISL,ioos:station:DISL:BSCA:1,2018-03-05T04:30:00Z,30.3288,-87.8293,1.891,8.81,1111122 
DISL,ioos:station:DISL:BSCA:1,2018-03-05T05:30:00Z,30.3288,-87.8293,1.909,6.45,1111122 
DISL,ioos:station:DISL:BSCA:1,2018-03-05T06:30:00Z,30.3288,-87.8293,1.904,7.84,1111122 
DISL,ioos:station:DISL:BSCA:1,2018-03-05T07:30:00Z,30.3288,-87.8293,1.9,5.83,1111122 
DISL,ioos:station:DISL:BSCA:1,2018-03-05T08:30:00Z,30.3288,-87.8293,1.917,3.01,1111122 
DISL,ioos:station:DISL:BSCA:1,2018-03-05T09:30:00Z,30.3288,-87.8293,1.941,4.99,1111122 
DISL,ioos:station:DISL:BSCA:1,2018-03-05T10:30:00Z,30.3288,-87.8293,1.951,7.09,1111122 
DISL,ioos:station:DISL:BSCA:1,2018-03-05T11:30:00Z,30.3288,-87.8293,1.936,8.55,1111122 
DISL,ioos:station:DISL:BSCA:1,2018-03-05T12:30:00Z,30.3288,-87.8293,1.912,8.89,1111122 
DISL,ioos:station:DISL:BSCA:1,2018-03-05T14:30:00Z,30.3288,-87.8293,1.989,6.33,1111122 
DISL,ioos:station:DISL:BSCA:1,2018-03-05T15:30:00Z,30.3288,-87.8293,1.996,9.38,1111122 
DISL,ioos:station:DISL:BSCA:1,2018-03-05T16:30:00Z,30.3288,-87.8293,1.982,9.91,1111122 
DISL,ioos:station:DISL:BSCA:1,2018-03-05T18:00:00Z,30.3288,-87.8293,1.98,10.4,1111122 
DISL,ioos:station:DISL:BSCA:1,2018-03-05T18:30:00Z,30.3288,-87.8293,1.98,9.75,1111122 
DISL,ioos:station:DISL:BSCA:1,2018-03-05T19:30:00Z,30.3288,-87.8293,2.001,10.39,1111122 
DISL,ioos:station:DISL:BSCA:1,2018-03-05T20:30:00Z,30.3288,-87.8293,1.993,10.92,1111122 
DISL,ioos:station:DISL:BSCA:1,2018-03-05T21:30:00Z,30.3288,-87.8293,1.987,11.64,1111122 
DISL,ioos:station:DISL:BSCA:1,2018-03-05T22:30:00Z,30.3288,-87.8293,1.985,11.6,1111122 
DISL,ioos:station:DISL:BSCA:1,2018-03-05T23:30:00Z,30.3288,-87.8293,1.941,12.06,1111122 
DISL,ioos:station:DISL:BSCA:1,2018-03-06T00:30:00Z,30.3288,-87.8293,1.919,11.81,1111122 
DISL,ioos:station:DISL:BSCA:1,2018-03-06T01:30:00Z,30.3288,-87.8293,1.898,11.99,1111122 
DISL,ioos:station:DISL:BSCA:1,2018-03-06T02:30:00Z,30.3288,-87.8293,1.887,11.73,1111122 
DISL,ioos:station:DISL:BSCA:1,2018-03-06T03:30:00Z,30.3288,-87.8293,1.892,11.31,1111122 
DISL,ioos:station:DISL:BSCA:1,2018-03-06T04:30:00Z,30.3288,-87.8293,1.901,11.55,1111122 
DISL,ioos:station:DISL:BSCA:1,2018-03-07T00:30:00Z,30.3288,-87.8293,1.987,7.01,1111122 
DISL,ioos:station:DISL:BSCA:1,2018-03-07T01:30:00Z,30.3288,-87.8293,1.978,8.23,1111122 
DISL,ioos:station:DISL:BSCA:1,2018-03-07T02:30:00Z,30.3288,-87.8293,1.951,8.41,1111122 
DISL,ioos:station:DISL:BSCA:1,2018-03-07T03:30:00Z,30.3288,-87.8293,1.933,8.69,1111122 
DISL,ioos:station:DISL:BSCA:1,2018-03-07T04:30:00Z,30.3288,-87.8293,1.945,9.01,1111122 
DISL,ioos:station:DISL:BSCA:1,2018-03-07T05:30:00Z,30.3288,-87.8293,1.938,8.92,1111122 
DISL,ioos:station:DISL:BSCA:1,2018-03-07T06:30:00Z,30.3288,-87.8293,1.861,8.63,1111122 
DISL,ioos:station:DISL:BSCA:1,2018-03-07T07:30:00Z,30.3288,-87.8293,1.843,8.65,1111122 
DISL,ioos:station:DISL:BSCA:1,2018-03-07T08:30:00Z,30.3288,-87.8293,1.909,8.72,1111122 
DISL,ioos:station:DISL:BSCA:1,2018-03-07T09:30:00Z,30.3288,-87.8293,1.9,8.89,1111122 
DISL,ioos:station:DISL:BSCA:1,2018-03-07T10:30:00Z,30.3288,-87.8293,1.903,9.35,1111122 
DISL,ioos:station:DISL:BSCA:1,2018-03-07T11:30:00Z,30.3288,-87.8293,1.896,9.19,1111122 
DISL,ioos:station:DISL:BSCA:1,2018-03-07T12:30:00Z,30.3288,-87.8293,1.824,9.19,1111122 
DISL,ioos:station:DISL:BSCA:1,2018-03-07T13:30:00Z,30.3288,-87.8293,1.841,8.94,1111122 
DISL,ioos:station:DISL:BSCA:1,2018-03-07T14:30:00Z,30.3288,-87.8293,1.853,9.09,1111122 
DISL,ioos:station:DISL:BSCA:1,2018-03-07T15:30:00Z,30.3288,-87.8293,1.868,9.09,1111122 
DISL,ioos:station:DISL:BSCA:1,2018-03-07T16:30:00Z,30.3288,-87.8293,1.925,9.03,1111122 
DISL,ioos:station:DISL:BSCA:1,2018-03-07T17:30:00Z,30.3288,-87.8293,1.955,7.83,1111122 
DISL,ioos:station:DISL:BSCA:1,2018-03-07T18:00:00Z,30.3288,-87.8293,1.963,7.89,1111122 
DISL,ioos:station:DISL:BSCA:1,2018-03-08T00:30:00Z,30.3288,-87.8293,1.95,9.09,1111122 
DISL,ioos:station:DISL:BSCA:1,2018-03-08T01:30:00Z,30.3288,-87.8293,1.929,8.89,1111122 
DISL,ioos:station:DISL:BSCA:1,2018-03-08T02:30:00Z,30.3288,-87.8293,1.883,9.65,1111122 
DISL,ioos:station:DISL:BSCA:1,2018-03-08T03:30:00Z,30.3288,-87.8293,1.814,9.13,1111122 
DISL,ioos:station:DISL:BSCA:1,2018-03-08T04:30:00Z,30.3288,-87.8293,1.751,8.54,1111122 
DISL,ioos:station:DISL:BSCA:1,2018-03-08T05:30:00Z,30.3288,-87.8293,1.707,8.48,1111122 
DISL,ioos:station:DISL:BSCA:1,2018-03-08T06:30:00Z,30.3288,-87.8293,1.714,8.41,1111122 
DISL,ioos:station:DISL:BSCA:1,2018-03-08T07:30:00Z,30.3288,-87.8293,1.742,9.51,1111122 
DISL,ioos:station:DISL:BSCA:1,2018-03-08T08:30:00Z,30.3288,-87.8293,1.653,9.17,1111122 
DISL,ioos:station:DISL:BSCA:1,2018-03-08T09:30:00Z,30.3288,-87.8293,1.549,8.86,1111122 
DISL,ioos:station:DISL:BSCA:1,2018-03-08T10:30:00Z,30.3288,-87.8293,1.549,8.17,1111122 
DISL,ioos:station:DISL:BSCA:1,2018-03-08T11:30:00Z,30.3288,-87.8293,1.632,7.96,1111122 
DISL,ioos:station:DISL:BSCA:1,2018-03-08T22:30:00Z,30.3288,-87.8293,2.04,9.74,1111122 
DISL,ioos:station:DISL:BSCA:1,2018-03-08T23:30:00Z,30.3288,-87.8293,1.998,8.61,1111122 
DISL,ioos:station:DISL:BSCA:1,2018-03-09T00:30:00Z,30.3288,-87.8293,1.962,8.87,1111122 
DISL,ioos:station:DISL:BSCA:1,2018-03-09T01:30:00Z,30.3288,-87.8293,1.923,9.02,1111122 
DISL,ioos:station:DISL:BSCA:1,2018-03-09T02:30:00Z,30.3288,-87.8293,1.875,9.01,1111122 
DISL,ioos:station:DISL:BSCA:1,2018-03-09T03:30:00Z,30.3288,-87.8293,1.813,8.83,1111122 
DISL,ioos:station:DISL:BSCA:1,2018-03-09T04:30:00Z,30.3288,-87.8293,1.759,8.08,1111122 
DISL,ioos:station:DISL:BSCA:1,2018-03-09T05:30:00Z,30.3288,-87.8293,1.723,10.02,1111122 
DISL,ioos:station:DISL:BSCA:1,2018-03-09T06:30:00Z,30.3288,-87.8293,1.687,9.91,1111122 
DISL,ioos:station:DISL:BSCA:1,2018-03-09T07:30:00Z,30.3288,-87.8293,1.64,9.91,1111122 
DISL,ioos:station:DISL:BSCA:1,2018-03-09T08:00:00Z,30.3288,-87.8293,1.617,9.8,1111122 
DISL,ioos:station:DISL:BSCA:1,2018-03-09T09:30:00Z,30.3288,-87.8293,1.586,9.78,1111122 
DISL,ioos:station:DISL:BSCA:1,2018-03-09T10:30:00Z,30.3288,-87.8293,1.618,9.61,1111122 
DISL,ioos:station:DISL:BSCA:1,2018-03-09T12:00:00Z,30.3288,-87.8293,1.686,9.56,1111122 
DISL,ioos:station:DISL:BSCA:1,2018-03-09T14:00:00Z,30.3288,-87.8293,1.738,8.52,1111122 
DISL,ioos:station:DISL:BSCA:1,2018-03-09T14:30:00Z,30.3288,-87.8293,1.764,6.26,1111122 
DISL,ioos:station:DISL:BSCA:1,2018-03-09T15:00:00Z,30.3288,-87.8293,1.791,5.74,1111122 
DISL,ioos:station:DISL:BSCA:1,2018-03-10T00:30:00Z,30.3288,-87.8293,2.135,11.84,1111122 
DISL,ioos:station:DISL:BSCA:1,2018-03-10T01:30:00Z,30.3288,-87.8293,2.11,8.31,1111122 
DISL,ioos:station:DISL:BSCA:1,2018-03-10T02:30:00Z,30.3288,-87.8293,2.045,8.67,1111122 
DISL,ioos:station:DISL:BSCA:1,2018-03-10T03:30:00Z,30.3288,-87.8293,1.991,11.11,1111122 
DISL,ioos:station:DISL:BSCA:1,2018-03-10T04:30:00Z,30.3288,-87.8293,1.935,11.46,1111122 
DISL,ioos:station:DISL:BSCA:1,2018-03-10T05:30:00Z,30.3288,-87.8293,1.877,10.13,1111122 
DISL,ioos:station:DISL:BSCA:1,2018-03-10T06:30:00Z,30.3288,-87.8293,1.856,10.89,1111122 
DISL,ioos:station:DISL:BSCA:1,2018-03-10T07:30:00Z,30.3288,-87.8293,1.844,11.38,1111122 
DISL,ioos:station:DISL:BSCA:1,2018-03-10T08:30:00Z,30.3288,-87.8293,1.809,11.39,1111122 
DISL,ioos:station:DISL:BSCA:1,2018-03-10T09:30:00Z,30.3288,-87.8293,1.809,10.61,1111122 
DISL,ioos:station:DISL:BSCA:1,2018-03-10T10:30:00Z,30.3288,-87.8293,1.801,6.82,1111122 
DISL,ioos:station:DISL:BSCA:1,2018-03-10T11:30:00Z,30.3288,-87.8293,1.816,5.18,1111122 
DISL,ioos:station:DISL:BSCA:1,2018-03-10T12:30:00Z,30.3288,-87.8293,1.821,8.87,1111122 
DISL,ioos:station:DISL:BSCA:1,2018-03-10T13:00:00Z,30.3288,-87.8293,1.84,7.69,1111122 
DISL,ioos:station:DISL:BSCA:1,2018-03-11T23:30:00Z,30.3288,-87.8293,2.188,8.11,1111122 
DISL,ioos:station:DISL:BSCA:1,2018-03-12T00:30:00Z,30.3288,-87.8293,2.345,7.61,1111122 
DISL,ioos:station:DISL:BSCA:1,2018-03-12T01:30:00Z,30.3288,-87.8293,2.379,7.55,1111122 
DISL,ioos:station:DISL:BSCA:1,2018-03-12T03:30:00Z,30.3288,-87.8293,2.287,8.27,1111122 
DISL,ioos:station:DISL:BSCA:1,2018-03-12T07:30:00Z,30.3288,-87.8293,2.106,8.33,1111122 
DISL,ioos:station:DISL:BSCA:1,2018-03-12T08:30:00Z,30.3288,-87.8293,2.032,8.35,1111122 
DISL,ioos:station:DISL:BSCA:1,2018-03-12T09:30:00Z,30.3288,-87.8293,1.958,9.51,1111122 
DISL,ioos:station:DISL:BSCA:1,2018-03-12T10:30:00Z,30.3288,-87.8293,1.91,10.0,1111122 
DISL,ioos:station:DISL:BSCA:1,2018-03-12T11:30:00Z,30.3288,-87.8293,1.879,10.04,1111122 
DISL,ioos:station:DISL:BSCA:1,2018-03-12T12:30:00Z,30.3288,-87.8293,1.752,9.95,1111122 
DISL,ioos:station:DISL:BSCA:1,2018-03-12T13:30:00Z,30.3288,-87.8293,1.767,10.18,1111122 
DISL,ioos:station:DISL:BSCA:1,2018-03-12T14:30:00Z,30.3288,-87.8293,1.835,10.0,1111122 
DISL,ioos:station:DISL:BSCA:1,2018-03-12T15:30:00Z,30.3288,-87.8293,1.781,10.29,1111122 
DISL,ioos:station:DISL:BSCA:1,2018-03-12T16:30:00Z,30.3288,-87.8293,1.731,10.24,1111122 
DISL,ioos:station:DISL:BSCA:1,2018-03-12T17:30:00Z,30.3288,-87.8293,1.755,10.25,1111122 
DISL,ioos:station:DISL:BSCA:1,2018-03-12T18:30:00Z,30.3288,-87.8293,1.809,10.27,1111122 
DISL,ioos:station:DISL:BSCA:1,2018-03-12T19:30:00Z,30.3288,-87.8293,1.852,10.48,1111122 
DISL,ioos:station:DISL:BSCA:1,2018-03-12T20:30:00Z,30.3288,-87.8293,1.897,10.5,1111122 
DISL,ioos:station:DISL:BSCA:1,2018-03-12T21:30:00Z,30.3288,-87.8293,1.948,10.49,1111122 
DISL,ioos:station:DISL:BSCA:1,2018-03-12T22:30:00Z,30.3288,-87.8293,2.02,10.44,1111122 
DISL,ioos:station:DISL:BSCA:1,2018-03-12T23:30:00Z,30.3288,-87.8293,2.072,10.43,1111122 
DISL,ioos:station:DISL:BSCA:1,2018-03-13T00:30:00Z,30.3288,-87.8293,2.072,10.4,1111122 
DISL,ioos:station:DISL:BSCA:1,2018-03-13T01:30:00Z,30.3288,-87.8293,2.045,10.39,1111122 
DISL,ioos:station:DISL:BSCA:1,2018-03-13T02:30:00Z,30.3288,-87.8293,2.008,10.41,1111122 
DISL,ioos:station:DISL:BSCA:1,2018-03-13T03:30:00Z,30.3288,-87.8293,1.967,10.42,1111122 
DISL,ioos:station:DISL:BSCA:1,2018-03-13T04:30:00Z,30.3288,-87.8293,1.927,10.14,1111122 
DISL,ioos:station:DISL:BSCA:1,2018-03-13T05:30:00Z,30.3288,-87.8293,1.877,10.03,1111122 
DISL,ioos:station:DISL:BSCA:1,2018-03-13T06:30:00Z,30.3288,-87.8293,1.809,9.96,1111122 
DISL,ioos:station:DISL:BSCA:1,2018-03-13T07:30:00Z,30.3288,-87.8293,1.784,9.74,1111122 
DISL,ioos:station:DISL:BSCA:1,2018-03-13T08:30:00Z,30.3288,-87.8293,1.77,10.06,1111122 
DISL,ioos:station:DISL:BSCA:1,2018-03-13T09:30:00Z,30.3288,-87.8293,1.698,10.02,1111122 
DISL,ioos:station:DISL:BSCA:1,2018-03-13T10:30:00Z,30.3288,-87.8293,1.602,9.96,1111122 
DISL,ioos:station:DISL:BSCA:1,2018-03-13T12:00:00Z,30.3288,-87.8293,1.527,9.58,1111122 
DISL,ioos:station:DISL:BSCA:1,2018-03-13T13:00:00Z,30.3288,-87.8293,1.536,9.12,1111122 
DISL,ioos:station:DISL:BSCA:1,2018-03-14T03:30:00Z,30.3288,-87.8293,2.048,10.24,1111122 
DISL,ioos:station:DISL:BSCA:1,2018-03-14T04:30:00Z,30.3288,-87.8293,1.996,11.21,1111122 
DISL,ioos:station:DISL:BSCA:1,2018-03-14T05:30:00Z,30.3288,-87.8293,1.926,11.05,1111122 
DISL,ioos:station:DISL:BSCA:1,2018-03-14T06:30:00Z,30.3288,-87.8293,1.885,9.9,1111122 
DISL,ioos:station:DISL:BSCA:1,2018-03-14T07:30:00Z,30.3288,-87.8293,1.868,11.4,1111122 
DISL,ioos:station:DISL:BSCA:1,2018-03-14T09:00:00Z,30.3288,-87.8293,1.73,10.87,1111122 
DISL,ioos:station:DISL:BSCA:1,2018-03-14T09:30:00Z,30.3288,-87.8293,1.676,10.93,1111122 
DISL,ioos:station:DISL:BSCA:1,2018-03-14T11:00:00Z,30.3288,-87.8293,1.582,10.28,1111122 
DISL,ioos:station:DISL:BSCA:1,2018-03-14T12:00:00Z,30.3288,-87.8293,1.59,10.09,1111122 
DISL,ioos:station:DISL:BSCA:1,2018-03-14T12:30:00Z,30.3288,-87.8293,1.601,10.09,1111122 
DISL,ioos:station:DISL:BSCA:1,2018-03-14T18:00:00Z,30.3288,-87.8293,1.81,11.81,1111122 
DISL,ioos:station:DISL:BSCA:1,2018-03-15T00:00:00Z,30.3288,-87.8293,2.049,12.55,1111122 
DISL,ioos:station:DISL:BSCA:1,2018-03-15T01:00:00Z,30.3288,-87.8293,2.081,12.53,1111122 
DISL,ioos:station:DISL:BSCA:1,2018-03-15T02:00:00Z,30.3288,-87.8293,2.097,12.23,1111122 
DISL,ioos:station:DISL:BSCA:1,2018-03-15T02:30:00Z,30.3288,-87.8293,2.092,12.26,1111122 
DISL,ioos:station:DISL:BSCA:1,2018-03-15T03:30:00Z,30.3288,-87.8293,2.063,12.44,1111122 
DISL,ioos:station:DISL:BSCA:1,2018-03-15T04:30:00Z,30.3288,-87.8293,1.992,12.33,1111122 
DISL,ioos:station:DISL:BSCA:1,2018-03-15T05:30:00Z,30.3288,-87.8293,1.936,11.31,1111122 
DISL,ioos:station:DISL:BSCA:1,2018-03-15T06:30:00Z,30.3288,-87.8293,1.898,11.63,1111122 
DISL,ioos:station:DISL:BSCA:1,2018-03-15T07:30:00Z,30.3288,-87.8293,1.847,11.97,1111122 
DISL,ioos:station:DISL:BSCA:1,2018-03-15T08:00:00Z,30.3288,-87.8293,1.821,12.02,1111122 
DISL,ioos:station:DISL:BSCA:1,2018-03-15T12:00:00Z,30.3288,-87.8293,1.666,9.69,1111122 
DISL,ioos:station:DISL:BSCA:1,2018-03-15T13:00:00Z,30.3288,-87.8293,1.66,10.61,1111122 
DISL,ioos:station:DISL:BSCA:1,2018-03-15T14:00:00Z,30.3288,-87.8293,1.673,8.82,1111122 
DISL,ioos:station:DISL:BSCA:1,2018-03-15T15:00:00Z,30.3288,-87.8293,1.692,8.13,1111122 
DISL,ioos:station:DISL:BSCA:1,2018-03-15T16:00:00Z,30.3288,-87.8293,1.735,7.22,1111122 
DISL,ioos:station:DISL:BSCA:1,2018-03-15T23:30:00Z,30.3288,-87.8293,1.968,13.38,1111122 
DISL,ioos:station:DISL:BSCA:1,2018-03-16T01:00:00Z,30.3288,-87.8293,2.012,12.14,1111122 
DISL,ioos:station:DISL:BSCA:1,2018-03-16T01:30:00Z,30.3288,-87.8293,2.042,12.1,1111122 
DISL,ioos:station:DISL:BSCA:1,2018-03-16T03:00:00Z,30.3288,-87.8293,2.058,11.87,1111122 
DISL,ioos:station:DISL:BSCA:1,2018-03-16T03:30:00Z,30.3288,-87.8293,2.055,11.36,1111122 
DISL,ioos:station:DISL:BSCA:1,2018-03-16T04:30:00Z,30.3288,-87.8293,2.048,12.29,1111122 
DISL,ioos:station:DISL:BSCA:1,2018-03-16T05:30:00Z,30.3288,-87.8293,2.021,11.7,1111122 
DISL,ioos:station:DISL:BSCA:1,2018-03-16T06:30:00Z,30.3288,-87.8293,2.011,12.03,1111122 
DISL,ioos:station:DISL:BSCA:1,2018-03-16T07:30:00Z,30.3288,-87.8293,1.961,12.0,1111122 
DISL,ioos:station:DISL:BSCA:1,2018-03-16T09:00:00Z,30.3288,-87.8293,1.884,11.48,1111122 
DISL,ioos:station:DISL:BSCA:1,2018-03-16T10:00:00Z,30.3288,-87.8293,1.816,9.57,1111122 
DISL,ioos:station:DISL:BSCA:1,2018-03-16T11:00:00Z,30.3288,-87.8293,1.786,8.27,1111122 
DISL,ioos:station:DISL:BSCA:1,2018-03-16T12:00:00Z,30.3288,-87.8293,1.761,9.64,1111122 
DISL,ioos:station:DISL:BSCA:1,2018-03-16T13:00:00Z,30.3288,-87.8293,1.766,8.77,1111122 
DISL,ioos:station:DISL:BSCA:1,2018-03-16T14:00:00Z,30.3288,-87.8293,1.776,8.32,1111122 
DISL,ioos:station:DISL:BSCA:1,2018-03-16T15:00:00Z,30.3288,-87.8293,1.791,9.31,1111122 
DISL,ioos:station:DISL:BSCA:1,2018-03-16T16:00:00Z,30.3288,-87.8293,1.834,8.98,1111122 
DISL,ioos:station:DISL:BSCA:1,2018-03-16T17:00:00Z,30.3288,-87.8293,1.886,9.25,1111122 
DISL,ioos:station:DISL:BSCA:1,2018-03-16T18:00:00Z,30.3288,-87.8293,1.944,7.27,1111122 
DISL,ioos:station:DISL:BSCA:1,2018-03-16T19:00:00Z,30.3288,-87.8293,1.947,9.12,1111122 
DISL,ioos:station:DISL:BSCA:1,2018-03-16T19:30:00Z,30.3288,-87.8293,1.944,9.51,1111122 
DISL,ioos:station:DISL:BSCA:1,2018-03-20T11:00:00Z,30.3288,-87.8293,2.166,9.3,1111122 
DISL,ioos:station:DISL:BSCA:1,2018-03-20T11:30:00Z,30.3288,-87.8293,2.139,9.0,1111122 
DISL,ioos:station:DISL:BSCA:1,2018-03-20T12:30:00Z,30.3288,-87.8293,2.12,8.51,1111122 
DISL,ioos:station:DISL:BSCA:1,2018-03-20T18:00:00Z,30.3288,-87.8293,2.194,9.41,1111122 
DISL,ioos:station:DISL:BSCA:1,2018-03-20T19:00:00Z,30.3288,-87.8293,2.238,9.35,1111122 
DISL,ioos:station:DISL:BSCA:1,2018-03-20T19:30:00Z,30.3288,-87.8293,2.225,9.42,1111122 
DISL,ioos:station:DISL:BSCA:1,2018-03-20T20:30:00Z,30.3288,-87.8293,2.179,9.32,1111122 
DISL,ioos:station:DISL:BSCA:1,2018-03-20T22:00:00Z,30.3288,-87.8293,2.119,9.42,1111122 
DISL,ioos:station:DISL:BSCA:1,2018-03-20T22:30:00Z,30.3288,-87.8293,2.085,9.57,1111122 
DISL,ioos:station:DISL:BSCA:1,2018-03-20T23:30:00Z,30.3288,-87.8293,2.04,9.39,1111122 
DISL,ioos:station:DISL:BSCA:1,2018-03-21T00:30:00Z,30.3288,-87.8293,2.019,9.33,1111122 
DISL,ioos:station:DISL:BSCA:1,2018-03-21T01:30:00Z,30.3288,-87.8293,1.97,9.18,1111122 
DISL,ioos:station:DISL:BSCA:1,2018-03-21T02:30:00Z,30.3288,-87.8293,1.845,9.17,1111122 
DISL,ioos:station:DISL:BSCA:1,2018-03-21T03:30:00Z,30.3288,-87.8293,1.785,9.01,1111122 
DISL,ioos:station:DISL:BSCA:1,2018-03-21T04:30:00Z,30.3288,-87.8293,1.758,8.96,1111122 
DISL,ioos:station:DISL:BSCA:1,2018-03-21T05:30:00Z,30.3288,-87.8293,1.761,8.89,1111122 
DISL,ioos:station:DISL:BSCA:1,2018-03-21T06:30:00Z,30.3288,-87.8293,1.777,8.77,1111122 
DISL,ioos:station:DISL:BSCA:1,2018-03-21T07:30:00Z,30.3288,-87.8293,1.802,8.54,1111122 
DISL,ioos:station:DISL:BSCA:1,2018-03-21T08:30:00Z,30.3288,-87.8293,1.815,8.35,1111122 
DISL,ioos:station:DISL:BSCA:1,2018-03-21T09:30:00Z,30.3288,-87.8293,1.892,8.45,1111122 
DISL,ioos:station:DISL:BSCA:1,2018-03-21T10:30:00Z,30.3288,-87.8293,1.924,8.52,1111122 
DISL,ioos:station:DISL:BSCA:1,2018-03-21T11:30:00Z,30.3288,-87.8293,1.965,8.89,1111122 
DISL,ioos:station:DISL:BSCA:1,2018-03-21T12:30:00Z,30.3288,-87.8293,2.0,8.98,1111122 
DISL,ioos:station:DISL:BSCA:1,2018-03-21T14:00:00Z,30.3288,-87.8293,1.984,9.15,1111122 
DISL,ioos:station:DISL:BSCA:1,2018-03-21T14:30:00Z,30.3288,-87.8293,2.001,9.21,1111122 
DISL,ioos:station:DISL:BSCA:1,2018-03-21T15:30:00Z,30.3288,-87.8293,2.012,9.26,1111122 
DISL,ioos:station:DISL:BSCA:1,2018-03-21T17:00:00Z,30.3288,-87.8293,2.024,8.71,1111122 
DISL,ioos:station:DISL:BSCA:1,2018-03-21T18:30:00Z,30.3288,-87.8293,2.013,8.64,1111122 
DISL,ioos:station:DISL:BSCA:1,2018-03-21T19:30:00Z,30.3288,-87.8293,2.018,9.07,1111122 
DISL,ioos:station:DISL:BSCA:1,2018-03-21T20:30:00Z,30.3288,-87.8293,2.009,9.04,1111122 
DISL,ioos:station:DISL:BSCA:1,2018-03-21T22:00:00Z,30.3288,-87.8293,1.973,8.89,1111122 
DISL,ioos:station:DISL:BSCA:1,2018-03-21T23:00:00Z,30.3288,-87.8293,1.919,8.72,1111122 
DISL,ioos:station:DISL:BSCA:1,2018-03-21T23:30:00Z,30.3288,-87.8293,1.873,9.11,1111122 
DISL,ioos:station:DISL:BSCA:1,2018-03-22T00:30:00Z,30.3288,-87.8293,1.834,9.37,1111122 
DISL,ioos:station:DISL:BSCA:1,2018-03-22T01:30:00Z,30.3288,-87.8293,1.77,9.6,1111122 
DISL,ioos:station:DISL:BSCA:1,2018-03-22T02:30:00Z,30.3288,-87.8293,1.695,9.35,1111122 
DISL,ioos:station:DISL:BSCA:1,2018-03-22T03:30:00Z,30.3288,-87.8293,1.653,10.13,1111122 
DISL,ioos:station:DISL:BSCA:1,2018-03-22T04:30:00Z,30.3288,-87.8293,1.624,10.11,1111122 
DISL,ioos:station:DISL:BSCA:1,2018-03-22T05:30:00Z,30.3288,-87.8293,1.59,9.81,1111122 
DISL,ioos:station:DISL:BSCA:1,2018-03-22T06:30:00Z,30.3288,-87.8293,1.539,9.81,1111122 
DISL,ioos:station:DISL:BSCA:1,2018-03-22T07:30:00Z,30.3288,-87.8293,1.505,9.43,1111122 
DISL,ioos:station:DISL:BSCA:1,2018-03-22T08:30:00Z,30.3288,-87.8293,1.513,8.92,1111122 
DISL,ioos:station:DISL:BSCA:1,2018-03-22T09:30:00Z,30.3288,-87.8293,1.544,9.24,1111122 
DISL,ioos:station:DISL:BSCA:1,2018-03-22T10:30:00Z,30.3288,-87.8293,1.587,8.89,1111122 
DISL,ioos:station:DISL:BSCA:1,2018-03-22T11:30:00Z,30.3288,-87.8293,1.639,8.43,1111122 
DISL,ioos:station:DISL:BSCA:1,2018-03-22T12:30:00Z,30.3288,-87.8293,1.67,8.38,1111122 
DISL,ioos:station:DISL:BSCA:1,2018-03-22T13:30:00Z,30.3288,-87.8293,1.706,7.94,1111122 
DISL,ioos:station:DISL:BSCA:1,2018-03-22T17:00:00Z,30.3288,-87.8293,1.945,9.02,1111122 
DISL,ioos:station:DISL:BSCA:1,2018-03-22T17:30:00Z,30.3288,-87.8293,1.976,9.06,1111122 
DISL,ioos:station:DISL:BSCA:1,2018-03-22T18:30:00Z,30.3288,-87.8293,2.022,9.42,1111122 
DISL,ioos:station:DISL:BSCA:1,2018-03-22T19:30:00Z,30.3288,-87.8293,2.036,9.78,1111122 
DISL,ioos:station:DISL:BSCA:1,2018-03-22T20:30:00Z,30.3288,-87.8293,2.0,10.17,1111122 
DISL,ioos:station:DISL:BSCA:1,2018-03-22T21:30:00Z,30.3288,-87.8293,1.967,9.66,1111122 
DISL,ioos:station:DISL:BSCA:1,2018-03-22T22:30:00Z,30.3288,-87.8293,1.945,9.36,1111122 
DISL,ioos:station:DISL:BSCA:1,2018-03-22T23:30:00Z,30.3288,-87.8293,1.928,10.76,1111122 
DISL,ioos:station:DISL:BSCA:1,2018-03-23T00:30:00Z,30.3288,-87.8293,1.868,10.35,1111122 
DISL,ioos:station:DISL:BSCA:1,2018-03-23T01:30:00Z,30.3288,-87.8293,1.782,10.35,1111122 
DISL,ioos:station:DISL:BSCA:1,2018-03-23T02:30:00Z,30.3288,-87.8293,1.728,9.72,1111122 